Location: Charleville
(26.4021°S, 146.2454°E)
Time: 12:56:56
(UTC+10:00)

X-37B - Visible Passes

Search period start: 02 October 2022 00:00
Search period end: 12 October 2022 00:00
Orbit: 329 x 342 km, 45.0° (Epoch: 29 September)

Date Brightness Start Highest point End Pass type
(mag) Time Alt. Az. Time Alt. Az. Time Alt. Az.
02 Oct 1.3 19:16:13 10° SSW 19:18:49 31° SE 19:19:12 30° SE visible
03 Oct 0.8 19:36:28 10° WSW 19:39:12 55° NW 19:39:12 55° NW visible
04 Oct 3.2 19:58:05 10° WNW 19:59:19 13° NW 19:59:19 13° NW visible
05 Oct 0.9 18:41:54 10° WSW 18:44:42 56° NW 18:47:28 10° NE visible
06 Oct 3.2 19:03:29 10° WNW 19:04:58 13° NW 19:06:26 10° NNW visible
